Year,Month,Day,Hour,Minute,Value (Times are PST for temperature in C)
2019,09,20,08,35,13.20
2019,09,20,08,36,13.20
2019,09,20,08,37,13.30
2019,09,20,08,38,13.30
2019,09,20,08,39,13.30
2019,09,20,08,40,13.40
2019,09,20,08,41,13.50
2019,09,20,08,42,13.50
2019,09,20,08,43,13.50
2019,09,20,08,44,13.50
2019,09,20,08,45,13.50
2019,09,20,08,46,13.60
2019,09,20,08,47,13.60
2019,09,20,08,48,13.60
2019,09,20,08,49,13.60
2019,09,20,08,50,13.60
2019,09,20,08,51,13.70
2019,09,20,08,52,13.70
2019,09,20,08,53,13.70
2019,09,20,08,54,13.70
2019,09,20,08,55,13.70
2019,09,20,08,56,13.70
2019,09,20,08,57,13.70
2019,09,20,08,58,13.70
2019,09,20,08,59,13.80
2019,09,20,09,00,13.80
2019,09,20,09,01,13.80
2019,09,20,09,02,13.90
2019,09,20,09,03,13.90
2019,09,20,09,04,14.00
2019,09,20,09,05,14.00
2019,09,20,09,06,14.10
2019,09,20,09,07,14.20
2019,09,20,09,08,14.20
2019,09,20,09,09,14.20
2019,09,20,09,10,14.20
2019,09,20,09,11,14.20
2019,09,20,09,12,14.20
2019,09,20,09,13,14.20
2019,09,20,09,14,14.20
2019,09,20,09,15,14.20
2019,09,20,09,16,14.10
2019,09,20,09,17,14.20
2019,09,20,09,18,14.20
2019,09,20,09,19,14.20
2019,09,20,09,20,14.20
2019,09,20,09,21,14.20
2019,09,20,09,22,14.20
2019,09,20,09,23,14.20
2019,09,20,09,24,14.20
2019,09,20,09,25,14.20
2019,09,20,09,26,14.20
2019,09,20,09,27,14.20
2019,09,20,09,28,14.30
2019,09,20,09,29,14.30
2019,09,20,09,30,14.40
2019,09,20,09,31,14.50
2019,09,20,09,32,14.50
2019,09,20,09,33,14.60
2019,09,20,09,34,14.60
2019,09,20,09,35,14.70
2019,09,20,09,36,14.80
2019,09,20,09,37,14.80
2019,09,20,09,38,14.80
2019,09,20,09,39,14.90
2019,09,20,09,40,15.00
2019,09,20,09,41,15.00
2019,09,20,09,42,15.10
2019,09,20,09,43,15.20
2019,09,20,09,44,15.30
2019,09,20,09,45,15.30
2019,09,20,09,46,15.30
2019,09,20,09,47,15.40
2019,09,20,09,48,15.40
2019,09,20,09,49,15.50
2019,09,20,09,50,15.50
2019,09,20,09,51,15.50
2019,09,20,09,52,15.50
2019,09,20,09,53,15.40
2019,09,20,09,54,15.40
2019,09,20,09,55,15.50
2019,09,20,09,56,15.60
2019,09,20,09,57,15.60
2019,09,20,09,58,15.70
2019,09,20,09,59,15.80
2019,09,20,10,00,15.90
2019,09,20,10,01,16.00
2019,09,20,10,02,16.10
2019,09,20,10,03,16.10
2019,09,20,10,04,16.20
2019,09,20,10,05,16.30
2019,09,20,10,06,16.40
2019,09,20,10,07,16.40
2019,09,20,10,08,16.40
2019,09,20,10,09,16.40
2019,09,20,10,10,16.50
2019,09,20,10,11,16.60
2019,09,20,10,12,16.60
2019,09,20,10,13,16.60
2019,09,20,10,14,16.70
2019,09,20,10,15,16.70
2019,09,20,10,16,16.70
2019,09,20,10,17,16.70
2019,09,20,10,18,16.80
2019,09,20,10,19,16.80
2019,09,20,10,20,16.90
2019,09,20,10,21,16.90
2019,09,20,10,22,17.00
2019,09,20,10,23,17.10
2019,09,20,10,24,17.20
2019,09,20,10,25,17.30
2019,09,20,10,26,17.40
2019,09,20,10,27,17.50
2019,09,20,10,28,17.70
2019,09,20,10,29,17.70
2019,09,20,10,30,17.80
2019,09,20,10,31,17.90
2019,09,20,10,32,17.90
2019,09,20,10,33,18.00
2019,09,20,10,34,18.10
2019,09,20,10,35,18.20
2019,09,20,10,36,18.20
2019,09,20,10,37,18.20
2019,09,20,10,38,18.20
2019,09,20,10,39,18.20
2019,09,20,10,40,18.10
2019,09,20,10,41,18.10
2019,09,20,10,42,18.10
2019,09,20,10,43,18.00
2019,09,20,10,44,17.90
2019,09,20,10,45,17.90
2019,09,20,10,46,17.90
2019,09,20,10,47,17.90
2019,09,20,10,48,17.90
2019,09,20,10,49,17.80
2019,09,20,10,50,17.70
2019,09,20,10,51,17.60
2019,09,20,10,52,17.60
2019,09,20,10,53,17.60
2019,09,20,10,54,17.60
2019,09,20,10,55,17.60
2019,09,20,10,56,17.70
2019,09,20,10,57,17.70
2019,09,20,10,58,17.70
2019,09,20,10,59,17.80
2019,09,20,11,00,17.80
2019,09,20,11,01,17.80
2019,09,20,11,02,17.80
2019,09,20,11,03,17.90
2019,09,20,11,04,17.90
2019,09,20,11,05,18.00
2019,09,20,11,06,18.10
2019,09,20,11,07,18.20
2019,09,20,11,08,18.20
2019,09,20,11,09,18.30
2019,09,20,11,10,18.30
2019,09,20,11,11,18.30
2019,09,20,11,12,18.30
2019,09,20,11,13,18.30
2019,09,20,11,14,18.20
2019,09,20,11,15,18.10
2019,09,20,11,16,18.10
2019,09,20,11,17,18.10
2019,09,20,11,18,18.10
2019,09,20,11,19,18.00
2019,09,20,11,20,17.90
2019,09,20,11,21,17.90
2019,09,20,11,22,17.90
2019,09,20,11,23,18.00
2019,09,20,11,24,18.10
2019,09,20,11,25,18.10
2019,09,20,11,26,18.20
2019,09,20,11,27,18.30
2019,09,20,11,28,18.40
2019,09,20,11,29,18.60
2019,09,20,11,30,18.70
2019,09,20,11,31,18.80
2019,09,20,11,32,18.90
2019,09,20,11,33,18.90
2019,09,20,11,34,18.90
2019,09,20,11,35,18.90
2019,09,20,11,36,18.90
2019,09,20,11,37,18.90
2019,09,20,11,38,18.90
2019,09,20,11,39,18.90
2019,09,20,11,40,18.90
2019,09,20,11,41,18.80
2019,09,20,11,42,18.80
2019,09,20,11,43,18.90
2019,09,20,11,44,18.90
2019,09,20,11,45,18.80
2019,09,20,11,46,18.80
2019,09,20,11,47,18.80
2019,09,20,11,48,18.80
2019,09,20,11,49,18.80
2019,09,20,11,50,18.80
2019,09,20,11,51,18.80
2019,09,20,11,52,18.60
2019,09,20,11,53,18.50
2019,09,20,11,54,18.30
2019,09,20,11,55,18.20
2019,09,20,11,56,18.10
2019,09,20,11,57,18.10
2019,09,20,11,58,18.20
2019,09,20,11,59,18.20
2019,09,20,12,00,18.20
2019,09,20,12,01,18.30
2019,09,20,12,02,18.30
2019,09,20,12,03,18.30
2019,09,20,12,04,18.40
2019,09,20,12,05,18.40
2019,09,20,12,06,18.50
2019,09,20,12,07,18.50
2019,09,20,12,08,18.60
2019,09,20,12,09,18.70
2019,09,20,12,10,18.70
2019,09,20,12,11,18.70
2019,09,20,12,12,18.70
2019,09,20,12,13,18.70
2019,09,20,12,14,18.80
2019,09,20,12,15,18.80
2019,09,20,12,16,18.80
2019,09,20,12,17,18.70
2019,09,20,12,18,18.60
2019,09,20,12,19,18.50
2019,09,20,12,20,18.40
2019,09,20,12,21,18.40
2019,09,20,12,22,18.50
2019,09,20,12,23,18.50
2019,09,20,12,24,18.50
2019,09,20,12,25,18.50
2019,09,20,12,26,18.50
2019,09,20,12,27,18.60
2019,09,20,12,28,18.70
2019,09,20,12,29,18.80
2019,09,20,12,30,18.90
2019,09,20,12,31,18.90
2019,09,20,12,32,18.90
2019,09,20,12,33,18.90
2019,09,20,12,34,18.90
2019,09,20,12,35,18.90
2019,09,20,12,36,18.90
2019,09,20,12,37,18.90
2019,09,20,12,38,18.90
2019,09,20,12,39,18.90
2019,09,20,12,40,18.90
2019,09,20,12,41,18.90
2019,09,20,12,42,18.90
2019,09,20,12,43,18.90
2019,09,20,12,44,18.90
2019,09,20,12,45,19.00
2019,09,20,12,46,19.10
2019,09,20,12,47,19.10
2019,09,20,12,48,19.00
2019,09,20,12,49,18.90
2019,09,20,12,50,18.80
2019,09,20,12,51,18.80
2019,09,20,12,52,18.70
2019,09,20,12,53,18.70
2019,09,20,12,54,18.80
2019,09,20,12,55,18.90
2019,09,20,12,56,18.90
2019,09,20,12,57,19.00
2019,09,20,12,58,19.10
2019,09,20,12,59,19.10
2019,09,20,13,00,19.10
2019,09,20,13,01,19.30
2019,09,20,13,02,19.20
2019,09,20,13,03,19.30
2019,09,20,13,04,19.30
2019,09,20,13,05,19.40
2019,09,20,13,06,19.40
2019,09,20,13,07,19.50
2019,09,20,13,08,19.60
2019,09,20,13,09,19.60
2019,09,20,13,10,19.60
2019,09,20,13,11,19.60
2019,09,20,13,12,19.60
2019,09,20,13,13,19.60
2019,09,20,13,14,19.50
2019,09,20,13,15,19.50
2019,09,20,13,16,19.40
2019,09,20,13,17,19.30
2019,09,20,13,18,19.30
2019,09,20,13,19,19.20
2019,09,20,13,20,19.00
2019,09,20,13,21,18.90
2019,09,20,13,22,18.90
2019,09,20,13,23,18.90
2019,09,20,13,24,18.90
2019,09,20,13,25,18.90
2019,09,20,13,26,19.10
2019,09,20,13,27,19.10
2019,09,20,13,28,19.10
2019,09,20,13,29,19.10
2019,09,20,13,30,19.10
2019,09,20,13,31,19.10
2019,09,20,13,32,19.10
2019,09,20,13,33,19.20
2019,09,20,13,34,19.10
2019,09,20,13,35,19.20
2019,09,20,13,36,19.20
2019,09,20,13,37,19.30
2019,09,20,13,38,19.30
2019,09,20,13,39,19.40
2019,09,20,13,40,19.50
2019,09,20,13,41,19.60
2019,09,20,13,42,19.60
2019,09,20,13,43,19.60
2019,09,20,13,44,19.60
2019,09,20,13,45,19.70
2019,09,20,13,46,19.70
2019,09,20,13,47,19.60
2019,09,20,13,48,19.60
2019,09,20,13,49,19.50
2019,09,20,13,50,19.50
2019,09,20,13,51,19.50
2019,09,20,13,52,19.40
2019,09,20,13,53,19.30
2019,09,20,13,54,19.20
2019,09,20,13,55,19.20
2019,09,20,13,56,19.30
2019,09,20,13,57,19.30
2019,09,20,13,58,19.40
2019,09,20,13,59,19.50
2019,09,20,14,00,19.60
2019,09,20,14,01,19.60
2019,09,20,14,02,19.50
2019,09,20,14,03,19.40
2019,09,20,14,04,19.40
2019,09,20,14,05,19.30
2019,09,20,14,06,19.30
2019,09,20,14,07,19.20
2019,09,20,14,08,19.30
2019,09,20,14,09,19.30
2019,09,20,14,10,19.40
2019,09,20,14,11,19.40
2019,09,20,14,12,19.50
2019,09,20,14,13,19.50
2019,09,20,14,14,19.50
2019,09,20,14,15,19.60
2019,09,20,14,16,19.70
2019,09,20,14,17,19.70
2019,09,20,14,18,19.80
2019,09,20,14,19,19.90
2019,09,20,14,20,20.00
2019,09,20,14,21,20.00
2019,09,20,14,22,19.90
2019,09,20,14,23,19.90
2019,09,20,14,24,19.80
2019,09,20,14,25,19.80
2019,09,20,14,26,19.60
2019,09,20,14,27,19.50
2019,09,20,14,28,19.40
2019,09,20,14,29,19.30
2019,09,20,14,30,19.20
2019,09,20,14,31,19.10
2019,09,20,14,32,19.10
2019,09,20,14,33,19.10
2019,09,20,14,34,19.10
2019,09,20,14,35,19.10
2019,09,20,14,36,19.20
2019,09,20,14,37,19.20
2019,09,20,14,38,19.20
2019,09,20,14,39,19.20
2019,09,20,14,40,19.10
2019,09,20,14,41,18.90
2019,09,20,14,42,18.90
2019,09,20,14,43,19.00
2019,09,20,14,44,19.10
2019,09,20,14,45,19.10
2019,09,20,14,46,19.10
2019,09,20,14,47,19.20
2019,09,20,14,48,19.20
2019,09,20,14,49,19.30
2019,09,20,14,50,19.30
2019,09,20,14,51,19.20
2019,09,20,14,52,19.10
2019,09,20,14,53,19.10
2019,09,20,14,54,18.90
2019,09,20,14,55,18.90
2019,09,20,14,56,18.90
2019,09,20,14,57,18.90
2019,09,20,14,58,18.90
2019,09,20,14,59,18.90
2019,09,20,15,00,18.90
2019,09,20,15,01,18.80
2019,09,20,15,02,18.60
2019,09,20,15,03,18.60
2019,09,20,15,04,18.50
2019,09,20,15,05,18.50
2019,09,20,15,06,18.50
2019,09,20,15,07,18.50
2019,09,20,15,08,18.50
2019,09,20,15,09,18.50
2019,09,20,15,10,18.60
2019,09,20,15,11,18.60
2019,09,20,15,12,18.60
2019,09,20,15,13,18.60
2019,09,20,15,14,18.70
2019,09,20,15,15,18.80
2019,09,20,15,16,18.80
2019,09,20,15,17,18.80
2019,09,20,15,18,18.90
2019,09,20,15,19,18.90
2019,09,20,15,20,19.10
2019,09,20,15,21,19.10
2019,09,20,15,22,19.10
2019,09,20,15,23,19.20
2019,09,20,15,24,19.20
2019,09,20,15,25,19.30
2019,09,20,15,26,19.40
2019,09,20,15,27,19.50
2019,09,20,15,28,19.60
2019,09,20,15,29,19.60
2019,09,20,15,30,19.40
2019,09,20,15,31,19.30
2019,09,20,15,32,19.00
2019,09,20,15,33,18.90
2019,09,20,15,34,18.80
2019,09,20,15,35,18.80
2019,09,20,15,36,18.70
2019,09,20,15,37,18.60
2019,09,20,15,38,18.50
2019,09,20,15,39,18.40
2019,09,20,15,40,18.50
2019,09,20,15,41,18.50
2019,09,20,15,42,18.60
2019,09,20,15,43,18.70
2019,09,20,15,44,18.80
2019,09,20,15,45,18.80
2019,09,20,15,46,18.70
2019,09,20,15,47,18.50
2019,09,20,15,48,18.40
2019,09,20,15,49,18.40
2019,09,20,15,50,18.40
2019,09,20,15,51,18.40
2019,09,20,15,52,18.50
2019,09,20,15,53,18.40
2019,09,20,15,54,18.40
2019,09,20,15,55,18.40
2019,09,20,15,56,18.40
2019,09,20,15,57,18.40
2019,09,20,15,58,18.40
2019,09,20,15,59,18.40
2019,09,20,16,00,18.40
2019,09,20,16,01,18.30
2019,09,20,16,02,18.30
2019,09,20,16,03,18.30
2019,09,20,16,04,18.30
2019,09,20,16,05,18.30
2019,09,20,16,06,18.40
2019,09,20,16,07,18.50
2019,09,20,16,08,18.50
2019,09,20,16,09,18.50
2019,09,20,16,10,18.60
2019,09,20,16,11,18.60
2019,09,20,16,12,18.70
2019,09,20,16,13,18.80
2019,09,20,16,14,18.90
2019,09,20,16,15,18.90
2019,09,20,16,16,18.90
2019,09,20,16,17,18.90
2019,09,20,16,18,18.90
2019,09,20,16,19,19.10
2019,09,20,16,20,19.00
2019,09,20,16,21,18.90
2019,09,20,16,22,18.90
2019,09,20,16,23,18.80
2019,09,20,16,24,18.80
2019,09,20,16,25,18.70
2019,09,20,16,26,18.70
2019,09,20,16,27,18.60
2019,09,20,16,28,18.60
2019,09,20,16,29,18.60
2019,09,20,16,30,18.60
2019,09,20,16,31,18.60
2019,09,20,16,32,18.60
2019,09,20,16,33,18.60
2019,09,20,16,34,18.60
2019,09,20,16,35,18.60
2019,09,20,16,36,18.60
2019,09,20,16,37,18.50
2019,09,20,16,38,18.50
2019,09,20,16,39,18.40
2019,09,20,16,40,18.30
2019,09,20,16,41,18.20
2019,09,20,16,42,18.10
2019,09,20,16,43,18.10
2019,09,20,16,44,18.00
2019,09,20,16,45,17.90
2019,09,20,16,46,17.90
2019,09,20,16,47,17.90
2019,09,20,16,48,17.90
2019,09,20,16,49,17.90
2019,09,20,16,50,17.90
2019,09,20,16,51,17.90
2019,09,20,16,52,17.80
2019,09,20,16,53,17.80
2019,09,20,16,54,17.90
2019,09,20,16,55,17.90
2019,09,20,16,56,18.00
2019,09,20,16,57,18.00
2019,09,20,16,58,17.90
2019,09,20,16,59,17.90
2019,09,20,17,00,17.90
2019,09,20,17,01,17.90
2019,09,20,17,02,17.90
2019,09,20,17,03,17.90
2019,09,20,17,04,17.90
2019,09,20,17,05,17.80
2019,09,20,17,06,17.70
2019,09,20,17,07,17.60
2019,09,20,17,08,17.60
2019,09,20,17,09,17.50
2019,09,20,17,10,17.40
2019,09,20,17,11,17.30
2019,09,20,17,12,17.20
2019,09,20,17,13,17.10
2019,09,20,17,14,17.10
2019,09,20,17,15,17.00
2019,09,20,17,16,17.00
2019,09,20,17,17,16.90
2019,09,20,17,18,16.90
2019,09,20,17,19,17.00
2019,09,20,17,20,17.00
2019,09,20,17,21,17.00
2019,09,20,17,22,17.00
2019,09,20,17,23,17.00
2019,09,20,17,24,17.00
2019,09,20,17,25,17.00
2019,09,20,17,26,17.10
2019,09,20,17,27,17.10
2019,09,20,17,28,17.20
2019,09,20,17,29,17.20
2019,09,20,17,30,17.20
2019,09,20,17,31,17.20
2019,09,20,17,32,17.20
2019,09,20,17,33,17.20
2019,09,20,17,34,17.20
2019,09,20,17,35,17.30
2019,09,20,17,36,17.30
2019,09,20,17,37,17.30
2019,09,20,17,38,17.30
2019,09,20,17,39,17.30
2019,09,20,17,40,17.30
2019,09,20,17,41,17.30
2019,09,20,17,42,17.20
2019,09,20,17,43,17.20
2019,09,20,17,44,17.20
2019,09,20,17,45,17.20
2019,09,20,17,46,17.20
2019,09,20,17,47,17.20
2019,09,20,17,48,17.20
2019,09,20,17,49,17.20
2019,09,20,17,50,17.20
2019,09,20,17,51,17.30
2019,09,20,17,52,17.30
2019,09,20,17,53,17.30
2019,09,20,17,54,17.40
2019,09,20,17,55,17.40
2019,09,20,17,56,17.40
2019,09,20,17,57,17.30
2019,09,20,17,58,17.30
2019,09,20,17,59,17.30
2019,09,20,18,00,17.30
2019,09,20,18,01,17.20
2019,09,20,18,02,17.10
2019,09,20,18,03,17.00
2019,09,20,18,04,17.00
2019,09,20,18,05,16.90
2019,09,20,18,06,16.80
2019,09,20,18,07,16.70
2019,09,20,18,08,16.70
2019,09,20,18,09,16.70
2019,09,20,18,10,16.70
2019,09,20,18,11,16.60
2019,09,20,18,12,16.60
2019,09,20,18,13,16.60
2019,09,20,18,14,16.60
2019,09,20,18,15,16.50
2019,09,20,18,16,16.50
2019,09,20,18,17,16.40
2019,09,20,18,18,16.40
2019,09,20,18,19,16.40
2019,09,20,18,20,16.40
2019,09,20,18,21,16.40
2019,09,20,18,22,16.40
2019,09,20,18,23,16.30
2019,09,20,18,24,16.30
2019,09,20,18,25,16.30
2019,09,20,18,26,16.20
2019,09,20,18,27,16.20
2019,09,20,18,28,16.20
2019,09,20,18,29,16.10
2019,09,20,18,30,16.10
2019,09,20,18,31,16.00
2019,09,20,18,32,15.90
2019,09,20,18,33,15.90
2019,09,20,18,34,15.90
2019,09,20,18,35,15.90
2019,09,20,18,36,15.90
2019,09,20,18,37,15.90
2019,09,20,18,38,15.90
2019,09,20,18,39,15.90
2019,09,20,18,40,15.90
2019,09,20,18,41,15.90
2019,09,20,18,42,15.90
2019,09,20,18,43,15.90
2019,09,20,18,44,15.90
2019,09,20,18,45,15.90
2019,09,20,18,46,15.90
2019,09,20,18,47,15.90
2019,09,20,18,48,15.90
2019,09,20,18,49,16.00
2019,09,20,18,50,16.10
2019,09,20,18,51,16.10
2019,09,20,18,52,16.10
2019,09,20,18,53,16.00
2019,09,20,18,54,15.90
2019,09,20,18,55,15.90
2019,09,20,18,56,15.90
2019,09,20,18,57,15.90
2019,09,20,18,58,15.90
2019,09,20,18,59,15.90
2019,09,20,19,00,15.90
2019,09,20,19,01,15.90
2019,09,20,19,02,15.90
2019,09,20,19,03,15.90
2019,09,20,19,04,15.90
2019,09,20,19,05,15.90
2019,09,20,19,06,15.90
2019,09,20,19,07,15.90
2019,09,20,19,08,15.90
2019,09,20,19,09,15.90
2019,09,20,19,10,15.90
